Location: Eschentzwiller
(47.7125°N, 7.3981°E)
Time: 04:37:38
(UTC+00:00)

CSL-04 Rocket - Pass Details

Date: 27 October 2020
Orbit: 805 x 861 km, 98.9° (Epoch: 01 December)

Event Time Altitude Azimuth Distance (km) Brightness Sun altitude
Rises 17:27:34 0° 136° (SE) 3,427 6.5 -11.9°
Reaches altitude 10° 17:30:06 10° 128° (SE) 2,492 5.7 -12.3°
Maximum altitude 17:35:04 35° 64° (ENE) 1,351 4.3 -13.1°
Drops below altitude 10° 17:40:01 10° 0° (N) 2,486 6.1 -14.0°
Sets 17:42:33 0° 352° (N) 3,418 6.9 -14.4°
